MST,Max TemperatureF,Mean TemperatureF,Min TemperatureF,Max Dew PointF,MeanDew PointF,Min DewpointF,Max Humidity, Mean Humidity, Min Humidity, Max Sea Level PressureIn, Mean Sea Level PressureIn, Min Sea Level PressureIn, Max VisibilityMiles, Mean VisibilityMiles, Min VisibilityMiles, Max Wind SpeedMPH, Mean Wind SpeedMPH, Max Gust SpeedMPH,PrecipitationIn, CloudCover, Events, WindDirDegrees
2012-11-1,53,44,35,39,36,34,100,80,59,30.01,29.90,29.81,10,8,3,18,9,22,0.01,2,Rain,36
2012-11-2,53,44,35,42,38,32,100,83,65,30.19,30.04,29.92,10,9,2,23,6,26,0.02,7,Rain,287
2012-11-3,50,41,31,36,33,30,96,76,56,30.21,30.16,30.09,10,10,6,14,6,17,0.00,3,,41
2012-11-4,62,48,34,39,34,30,96,64,32,30.30,30.16,30.04,10,10,10,33,10,40,T,2,,303
2012-11-5,70,53,35,45,35,31,89,63,36,30.22,30.06,29.87,10,10,10,39,12,49,0.02,2,,220
2012-11-6,55,41,27,34,28,23,92,61,29,30.29,30.17,29.96,10,10,10,13,6,13,0.00,1,,184
2012-11-7,69,53,37,38,33,29,76,52,27,29.94,29.81,29.66,10,10,10,33,10,44,T,2,,170
2012-11-8,47,41,34,35,29,27,82,70,58,30.13,30.03,29.93,10,10,10,21,11,28,0.00,8,,37
2012-11-9,35,31,26,30,27,24,92,84,75,29.91,29.79,29.73,10,4,0,24,14,32,0.17,8,Fog-Snow,54
2012-11-10,26,14,1,25,14,-3,92,81,70,30.15,29.92,29.75,10,5,1,24,14,30,0.04,6,Snow,334
2012-11-11,15,7,-1,9,5,-4,91,82,73,30.27,30.15,29.99,10,7,2,22,10,26,T,5,Snow,281
2012-11-12,31,15,-2,20,9,-5,95,82,68,30.31,30.27,30.22,10,10,10,10,7,12,0.00,1,,167
2012-11-13,41,29,16,30,24,14,88,76,64,30.25,30.22,30.18,10,10,10,12,6,13,0.00,4,,177
2012-11-14,43,34,24,31,26,21,88,77,65,30.30,30.17,30.10,10,10,10,12,5,13,T,2,,182
2012-11-15,42,33,23,33,27,21,96,82,67,30.39,30.30,30.14,10,10,10,15,8,17,0.00,1,,164
2012-11-16,42,35,27,30,27,23,85,73,60,30.11,30.04,29.99,10,10,10,13,7,14,0.00,1,,150
2012-11-17,52,40,28,34,31,27,92,71,50,30.08,29.99,29.86,10,10,10,13,6,17,0.00,2,,157
2012-11-18,53,42,30,37,31,26,85,70,54,30.08,29.87,29.77,10,10,10,12,6,14,0.00,2,,177
2012-11-19,56,43,30,32,29,26,92,62,32,30.12,30.05,29.96,10,10,10,17,10,21,T,1,,155
2012-11-20,56,45,34,38,33,28,82,64,46,29.97,29.90,29.82,10,10,10,15,10,17,0.00,0,,154
2012-11-21,65,52,38,40,36,33,83,60,37,29.85,29.74,29.60,10,10,10,28,11,31,0.01,2,Rain,201
2012-11-22,46,31,15,33,20,10,92,76,59,30.65,30.28,29.87,10,9,2,26,11,32,T,5,Snow,311
2012-11-23,38,26,14,24,18,10,88,74,59,30.63,30.37,30.04,10,10,10,13,6,16,0.00,0,,127
2012-11-24,48,38,28,36,28,23,92,77,61,30.10,30.00,29.93,10,10,10,21,7,26,T,6,Rain,258
2012-11-25,35,29,22,29,25,17,92,85,78,30.37,30.09,29.98,10,7,0,15,5,18,0.00,7,Fog,15
2012-11-26,40,29,18,25,21,16,92,71,50,30.42,30.31,30.18,10,10,7,13,6,16,0.00,2,,210
2012-11-27,40,31,22,24,22,20,96,73,50,30.24,30.20,30.17,10,10,10,9,5,12,0.00,0,,164
2012-11-28,43,33,22,24,21,18,81,65,49,30.16,30.06,29.93,10,10,10,10,5,12,0.00,0,,124
2012-11-29,39,32,25,26,24,22,88,74,59,29.99,29.94,29.88,10,10,10,10,4,13,0.00,1,,48
2012-11-30,44,35,25,31,28,23,92,77,62,29.91,29.77,29.65,10,10,10,12,4,14,0.00,1,,133